[[{"header":{"parameterUnit":"m.s-1","parameterCategory":1,"la1":30.2991,"la2":30.254,"lo1":-89.0895,"lo2":-89.0444,"dy":0.0017,"dx":0.0017,"nx":28,"ny":28,"refTime":"2023-10-31T09:00:00:Z","depth":0,"parameterNumber":2,"parameterNumberName":"U-component_of_WINDS"},"data":[0,0,0,0,0,0,0,0,0,0,0,0,0,0,0,0,0,0,0,0,0,0,0,0,0,0,0,0,0,0,0,0,0,0,0,0,0,0,0,0,0,0,0,0,0,0,0,0,0,0,0,0,0,0,0,0,0,0,-1.4207,-1.4208,0,-1.4275,-1.4275,-1.4276,-1.4251,-1.4249,-1.4248,-1.4246,-1.4316,-1.4319,-1.4322,0,0,0,0,0,0,0,0,0,0,0,0,0,-1.4054,-1.4057,-1.4207,-1.4208,-1.4209,-1.4275,-1.4275,-1.4276,-1.4251,-1.4249,-1.4247,-1.4246,-1.4314,-1.4318,-1.4322,0,0,0,0,0,0,0,0,0,0,0,0,0,-1.4121,-1.4058,-1.4207,-1.4204,-1.4204,-1.4274,-1.4275,-1.4277,-1.4252,-1.4249,-1.4247,-1.4245,-1.4313,-1.4318,-1.4323,-1.44,0,0,-1.4338,-1.434,0,0,0,0,0,0,0,0,-1.4117,-1.4127,-1.4204,-1.4204,-1.4205,-1.4252,-1.4247,-1.4318,-1.4252,-1.4234,-1.4246,-1.4244,-1.4296,-1.4302,-1.432,-1.4403,-1.4406,-1.4338,-1.4341,-1.4343,-1.4345,0,0,0,0,0,0,0,-1.4113,-1.4124,-1.4234,-1.4205,-1.4205,-1.4199,-1.4206,-1.426,-1.4277,-1.4235,-1.4233,-1.4242,-1.4296,-1.4315,-1.4322,-1.4407,-1.4338,-1.4343,-1.4346,-1.4347,-1.4554,-1.4557,0,0,0,0,0,0,-1.4108,-1.412,-1.4232,-1.4236,-1.4155,-1.4203,-1.4211,-1.4239,-1.4276,-1.428,-1.4244,-1.424,-1.4308,-1.4316,-1.4324,-1.4416,-1.4343,-1.4348,-1.4351,-1.4552,-1.4555,-1.4558,0,0,0,0,0,0,-1.4105,-1.4118,-1.4229,-1.4177,-1.4191,-1.4209,-1.424,-1.4242,-1.4261,-1.4283,-1.4286,-1.426,-1.4307,-1.4317,-1.4381,-1.4418,-1.435,-1.4355,-1.4549,-1.4553,-1.4556,-1.46,0,0,0,0,0,0,-1.4101,-1.4117,-1.4147,-1.4178,-1.4194,-1.4285,-1.4242,-1.4245,-1.427,-1.4266,-1.4299,-1.4303,-1.4306,-1.4373,-1.4386,-1.4423,-1.4358,-1.4546,-1.4551,-1.4555,-1.4595,-1.4605,-1.4613,0,0,0,0,0,-1.4095,-1.4157,-1.4149,-1.4162,-1.4232,-1.4287,-1.4296,-1.4298,-1.4273,-1.4303,-1.4316,-1.4302,-1.4411,-1.438,-1.4394,-1.4433,-1.4543,-1.4549,-1.4555,-1.4592,-1.4603,-1.4613,0,0,0,0,0,0,-1.413,-1.4161,-1.4152,-1.4226,-1.4254,-1.4283,-1.4321,-1.4311,-1.4347,-1.4342,-1.4342,-1.435,-1.4416,-1.4431,-1.4395,-1.4509,-1.4473,-1.4482,-1.4497,-1.4508,-1.4517,-1.4512,-1.4363,0,0,0,0,0,-1.4146,-1.4189,-1.4214,-1.4276,-1.4291,-1.4303,-1.4328,-1.4327,-1.4356,-1.4368,-1.4386,-1.4415,-1.4455,-1.4483,-1.4521,-1.4597,-1.4604,-1.4631,-1.464,-1.4647,-1.4655,-1.4695,-1.4707,-1.4576,-1.4576,-1.4576,0,0,-1.418,-1.4202,-1.423,-1.4284,-1.4306,-1.4349,-1.4314,-1.4362,-1.4394,-1.4375,-1.4436,-1.445,-1.4482,-1.4552,-1.4584,-1.4567,-1.4692,-1.4654,-1.466,-1.4664,-1.4702,-1.4714,-1.4725,-1.458,-1.458,-1.4579,0,0,-1.4265,-1.4286,-1.434,-1.4362,-1.4395,-1.4403,-1.4416,-1.4446,-1.4455,-1.4516,-1.4502,-1.454,-1.4611,-1.4634,-1.4655,-1.4746,-1.4734,-1.4759,-1.4805,-1.4844,-1.4854,-1.4863,-1.4896,-1.4907,-1.4766,-1.4766,-1.4766,0,-1.4303,-1.4369,-1.4369,-1.4418,-1.4442,-1.4426,-1.4481,-1.4502,-1.4546,-1.4563,-1.4543,-1.463,-1.4651,-1.4725,-1.4747,-1.4765,-1.4779,-1.4755,-1.4853,-1.4862,-1.4871,-1.4901,-1.4913,-1.4769,-1.4769,-1.4768,-1.4768,0,-1.4414,-1.446,-1.4499,-1.4542,-1.457,-1.4622,-1.4629,-1.4658,-1.4654,-1.4663,-1.4725,-1.4749,-1.4792,-1.4809,-1.4806,-1.4883,-1.4871,-1.4852,-1.4817,-1.4886,-1.4915,-1.4926,-1.4773,-1.4772,-1.4771,-1.477,0,0,-1.4523,-1.4565,-1.4579,-1.4598,-1.4632,-1.4667,-1.4718,-1.4759,-1.4783,-1.4814,-1.4856,-1.4915,-1.4897,-1.4921,-1.492,-1.4954,-1.5024,-1.4931,-1.4931,-1.4947,-1.511,-1.5124,-1.5138,-1.5016,-1.5018,-1.502,-1.5107,0,-1.4611,-1.4699,-1.47,-1.4781,-1.4823,-1.4808,-1.4851,-1.4877,-1.4886,-1.4923,-1.4933,-1.4975,-1.4949,-1.4963,-1.4996,-1.5009,-1.5057,-1.5002,-1.5054,-1.5056,-1.5047,-1.5153,-1.5168,-1.525,-1.5118,-1.512,-1.5121,0,-1.4725,-1.4758,-1.4844,-1.4871,-1.4888,-1.4928,-1.4965,-1.5,-1.5028,-1.5033,-1.5059,-1.5052,-1.5103,-1.5065,-1.5134,-1.5097,-1.5118,-1.5127,-1.513,-1.5136,-1.5093,-1.5161,-1.5275,-1.5288,-1.5139,-1.5138,-1.5137,0,-1.4796,-1.4862,-1.4922,-1.4938,-1.4972,-1.4999,-1.5014,-1.504,-1.5065,-1.5097,-1.5113,-1.5151,-1.5172,-1.5201,-1.5205,-1.5177,-1.5274,-1.5237,-1.5279,-1.5279,-1.5301,-1.5299,-1.542,-1.5314,-1.5314,-1.5314,-1.5313,0,-1.4893,-1.4946,-1.4954,-1.4991,-1.5049,-1.5049,-1.5106,-1.5119,-1.5142,-1.518,-1.5169,-1.5205,-1.5207,-1.5244,-1.5247,-1.5303,-1.5313,-1.5317,-1.5318,-1.5319,-1.5318,-1.5333,-1.5327,-1.5317,-1.5316,-1.5316,-1.5315,0,-1.4983,-1.499,-1.5054,-1.508,-1.5088,-1.5129,-1.5151,-1.5186,-1.5194,-1.5242,-1.5254,-1.5266,-1.5309,-1.5315,-1.5365,-1.5367,-1.5434,-1.5429,-1.5425,-1.5424,-1.5466,-1.5462,-1.5601,-1.5619,-1.5501,-1.5502,-1.5503,0,-1.5045,-1.5085,-1.5115,-1.5139,-1.5156,-1.5196,-1.5221,-1.5222,-1.5248,-1.5282,-1.5313,-1.5354,-1.5387,-1.5456,-1.5469,-1.5507,-1.5502,-1.5548,-1.5507,-1.5507,-1.5502,-1.55,-1.5504,-1.5556,-1.5557,-1.5558,-1.5559,0,-1.5153,-1.5155,-1.5191,-1.5229,-1.5258,-1.5288,-1.5316,-1.5336,-1.5341,-1.5371,-1.5414,-1.544,-1.549,-1.5531,-1.5568,-1.5583,-1.5572,-1.5571,-1.5583,-1.5585,-1.5581,-1.5583,-1.5446,-1.5568,-1.5567,-1.5567,-1.5566,-1.5566,-1.5231,-1.5266,-1.5292,-1.5332,-1.5353,-1.5379,-1.5412,-1.5424,-1.546,-1.5501,-1.5499,-1.5547,-1.5572,-1.5621,-1.5638,-1.5675,-1.566,-1.5677,-1.5681,-1.5686,-1.569,-1.5575,-1.5682,-1.5682,-1.5681,-1.5681,-1.5681,0,-1.5339,-1.5355,-1.5392,-1.5431,-1.5462,-1.5448,-1.5478,-1.5505,-1.5547,-1.5572,-1.5605,-1.5654,-1.5693,-1.5709,-1.5747,-1.5773,-1.5769,-1.5783,-1.5781,-1.5785,-1.5701,-1.5687,-1.5786,-1.5786,-1.5786,-1.5786,-1.5786,-1.5786,-1.5399,-1.5456,-1.5461,-1.5528,-1.5543,-1.5589,-1.5607,-1.5631,-1.5651,-1.5706,-1.5738,-1.5748,-1.5769,-1.5809,-1.5844,-1.5847,-1.5862,-1.5878,-1.588,-1.5801,-1.5791,-1.5781,-1.5767,-1.5882,-1.5882,-1.596,-1.5961,-1.5961]},{"header":{"parameterUnit":"m.s-1","parameterCategory":1,"la1":30.2991,"la2":30.254,"lo1":-89.0895,"lo2":-89.0444,"dy":0.0017,"dx":0.0017,"nx":28,"ny":28,"refTime":"2023-10-31T09:00:00:Z","depth":0,"parameterNumber":3,"parameterNumberName":"V-component_of_WINDS"},"data":[0,0,0,0,0,0,0,0,0,0,0,0,0,0,0,0,0,0,0,0,0,0,0,0,0,0,0,0,0,0,0,0,0,0,0,0,0,0,0,0,0,0,0,0,0,0,0,0,0,0,0,0,0,0,0,0,0,0,-7.2622,-7.2623,0,-7.2755,-7.2757,-7.2758,-7.2662,-7.2658,-7.2654,-7.265,-7.2779,-7.2786,-7.2793,0,0,0,0,0,0,0,0,0,0,0,0,0,-7.2276,-7.2283,-7.2622,-7.2623,-7.2625,-7.2755,-7.2757,-7.2758,-7.2663,-7.2658,-7.2653,-7.2648,-7.2777,-7.2785,-7.2794,0,0,0,0,0,0,0,0,0,0,0,0,0,-7.2419,-7.2285,-7.2621,-7.2593,-7.2592,-7.2754,-7.2757,-7.2759,-7.2664,-7.2658,-7.2651,-7.2645,-7.2774,-7.2784,-7.2795,-7.299,0,0,-7.2829,-7.2834,0,0,0,0,0,0,0,0,-7.2411,-7.2432,-7.2596,-7.2596,-7.2594,-7.2686,-7.2682,-7.2836,-7.2666,-7.2637,-7.265,-7.2642,-7.2753,-7.2765,-7.2804,-7.2996,-7.3002,-7.283,-7.2837,-7.2842,-7.2845,0,0,0,0,0,0,0,-7.2402,-7.2426,-7.2674,-7.2598,-7.2597,-7.2571,-7.2585,-7.2711,-7.2728,-7.2639,-7.2632,-7.2649,-7.2751,-7.2793,-7.2806,-7.3004,-7.283,-7.284,-7.2846,-7.2851,-7.3361,-7.3367,0,0,0,0,0,0,-7.2395,-7.2418,-7.267,-7.2678,-7.2486,-7.2583,-7.2598,-7.2663,-7.2727,-7.273,-7.2655,-7.2644,-7.2777,-7.2793,-7.281,-7.3041,-7.2841,-7.2852,-7.2858,-7.3354,-7.3362,-7.337,0,0,0,0,0,0,-7.2388,-7.2419,-7.2664,-7.2547,-7.2576,-7.2595,-7.2669,-7.2669,-7.2711,-7.2739,-7.2741,-7.2695,-7.2773,-7.2795,-7.2946,-7.3044,-7.2857,-7.2867,-7.3346,-7.3356,-7.3366,-7.3506,0,0,0,0,0,0,-7.2379,-7.2417,-7.2493,-7.2549,-7.2583,-7.2802,-7.2675,-7.2676,-7.2731,-7.2719,-7.2777,-7.2781,-7.277,-7.293,-7.2957,-7.3056,-7.2876,-7.3337,-7.335,-7.3363,-7.3493,-7.352,-7.3543,0,0,0,0,0,-7.2367,-7.2526,-7.2498,-7.2529,-7.2679,-7.2807,-7.2826,-7.2812,-7.274,-7.2815,-7.2833,-7.2779,-7.303,-7.2947,-7.2976,-7.308,-7.3331,-7.3347,-7.3362,-7.3481,-7.3514,-7.3542,0,0,0,0,0,0,-7.2479,-7.2533,-7.2502,-7.2685,-7.2743,-7.2791,-7.2886,-7.2848,-7.2926,-7.2911,-7.2887,-7.2901,-7.306,-7.3085,-7.2992,-7.3271,-7.3168,-7.319,-7.3249,-7.3281,-7.3305,-7.3295,-7.2885,0,0,0,0,0,-7.2526,-7.2628,-7.2668,-7.2825,-7.2856,-7.2867,-7.2922,-7.2906,-7.2964,-7.2987,-7.3016,-7.3072,-7.3163,-7.3223,-7.3308,-7.3496,-7.3506,-7.3581,-7.3607,-7.3627,-7.3646,-7.3745,-7.3778,-7.3421,-7.342,-7.342,0,0,-7.2622,-7.2664,-7.2729,-7.2849,-7.2892,-7.2996,-7.2888,-7.3002,-7.3078,-7.3004,-7.3149,-7.3172,-7.3233,-7.3403,-7.3479,-7.3428,-7.3747,-7.3647,-7.3663,-7.3671,-7.3764,-7.3798,-7.3828,-7.3431,-7.3429,-7.3428,0,0,-7.2849,-7.2893,-7.3028,-7.3073,-7.314,-7.3146,-7.3178,-7.3233,-7.3246,-7.3392,-7.3338,-7.3426,-7.3585,-7.3629,-7.3673,-7.3917,-7.387,-7.3946,-7.4077,-7.4173,-7.4201,-7.4226,-7.4311,-7.4342,-7.3965,-7.3965,-7.3965,0,-7.296,-7.3117,-7.3101,-7.322,-7.3273,-7.3213,-7.3348,-7.3392,-7.3482,-7.3519,-7.3462,-7.3658,-7.3694,-7.3873,-7.3933,-7.3971,-7.4005,-7.3938,-7.4199,-7.4224,-7.4247,-7.4327,-7.436,-7.3974,-7.3973,-7.3972,-7.3971,0,-7.3248,-7.3357,-7.3457,-7.3549,-7.3613,-7.374,-7.3741,-7.3807,-7.3786,-7.3796,-7.3944,-7.3986,-7.4078,-7.412,-7.4099,-7.4295,-7.4262,-7.4203,-7.4098,-7.429,-7.4365,-7.4396,-7.3986,-7.3983,-7.398,-7.3978,0,0,-7.355,-7.3631,-7.3668,-7.3708,-7.3777,-7.386,-7.3982,-7.4075,-7.4131,-7.4195,-7.4295,-7.443,-7.4376,-7.4425,-7.4409,-7.4494,-7.4682,-7.4423,-7.4424,-7.4468,-7.4898,-7.4941,-7.4978,-7.4652,-7.4658,-7.4662,-7.4892,0,-7.378,-7.3996,-7.3985,-7.4186,-7.4285,-7.4229,-7.4335,-7.4388,-7.4401,-7.4485,-7.4498,-7.4593,-7.4515,-7.4544,-7.4626,-7.4642,-7.4768,-7.4625,-7.4742,-7.4746,-7.4727,-7.5017,-7.5064,-7.5279,-7.4922,-7.4927,-7.4931,0,-7.4077,-7.4154,-7.4366,-7.4419,-7.446,-7.4556,-7.4639,-7.4721,-7.4778,-7.4781,-7.4837,-7.4806,-7.4927,-7.4821,-7.4985,-7.4889,-7.4935,-7.495,-7.4958,-7.4967,-7.4849,-7.5032,-7.5347,-7.5379,-7.4977,-7.4973,-7.497,0,-7.4274,-7.443,-7.4576,-7.4612,-7.4679,-7.4747,-7.4777,-7.4829,-7.4884,-7.4956,-7.4991,-7.5075,-7.5121,-7.5185,-7.5177,-7.5101,-7.5343,-7.5237,-7.5347,-7.5347,-7.5399,-7.5396,-7.5724,-7.5432,-7.5432,-7.5431,-7.5431,0,-7.4531,-7.4663,-7.4665,-7.4755,-7.49,-7.4885,-7.5027,-7.5049,-7.5096,-7.5186,-7.5142,-7.5228,-7.5213,-7.5298,-7.5292,-7.5428,-7.5449,-7.5453,-7.5449,-7.5456,-7.5455,-7.5485,-7.5469,-7.544,-7.5438,-7.5436,-7.5435,0,-7.4775,-7.4783,-7.4938,-7.4989,-7.5004,-7.5109,-7.515,-7.5234,-7.5243,-7.5359,-7.5385,-7.5399,-7.5496,-7.5495,-7.5606,-7.5602,-7.5767,-7.5747,-7.5749,-7.5744,-7.5853,-7.5842,-7.6211,-7.6258,-7.5937,-7.5941,-7.5943,0,-7.4938,-7.5038,-7.51,-7.5159,-7.5194,-7.529,-7.5347,-7.5335,-7.5396,-7.5468,-7.5542,-7.5636,-7.5711,-7.5869,-7.5887,-7.5971,-7.5951,-7.6075,-7.5963,-7.5967,-7.5951,-7.5945,-7.5953,-7.6096,-7.61,-7.6103,-7.6105,0,-7.5226,-7.5225,-7.531,-7.5398,-7.5467,-7.5534,-7.5596,-7.5646,-7.5641,-7.5711,-7.5811,-7.5869,-7.5983,-7.6076,-7.6157,-7.6184,-7.6143,-7.614,-7.617,-7.6177,-7.6173,-7.6175,-7.5807,-7.6131,-7.6129,-7.6127,-7.6125,-7.6124,-7.5433,-7.5519,-7.5576,-7.5672,-7.5717,-7.5776,-7.5857,-7.5877,-7.5961,-7.6055,-7.6042,-7.6153,-7.6205,-7.631,-7.6345,-7.643,-7.6386,-7.643,-7.644,-7.6451,-7.6462,-7.6161,-7.6445,-7.6444,-7.6443,-7.6443,-7.6442,0,-7.5717,-7.5751,-7.584,-7.5929,-7.6004,-7.5962,-7.6027,-7.6092,-7.6191,-7.6245,-7.632,-7.6434,-7.6524,-7.6549,-7.6635,-7.6698,-7.6681,-7.6721,-7.6715,-7.6722,-7.6497,-7.6462,-7.6733,-7.6733,-7.6733,-7.6733,-7.6732,-7.6732,-7.5874,-7.6016,-7.6021,-7.6185,-7.6216,-7.6327,-7.6368,-7.6421,-7.6464,-7.6594,-7.6669,-7.6686,-7.6728,-7.6816,-7.6896,-7.69,-7.6933,-7.698,-7.6977,-7.6767,-7.6738,-7.671,-7.6677,-7.6988,-7.6988,-7.7194,-7.7196,-7.7198]}]]